Regional Weather Roundup
Issued by NWS Sterling, VA

Home | Current Version | Previous Version | Text Only | Print | Product List | Glossary Off
Versions: 1 2 3 4 5 6 7 8 9 10 11 12 13 14 15 16 17 18 19 20 21 22 23 24 25 26 27 28

000
ASUS41 KLWX 230011
RWRLWX

REGIONAL WEATHER ROUNDUP
NATIONAL WEATHER SERVICE BALTIMORE MD/WASHINGTON DC
700 PM EST THU FEB 22 2018

Note: "FAIR" indicates few or no clouds below 12,000 feet
with no significant weather and/or obstructions to visibility.
 TC=TEMPERATURE CELSIUS

 * =Non NWS site. Station does not report precipitation (e.g. rain,
    snow, etc.), thunder, or fog.

DCZ001-MDZ009-015-VAZ040>042-051-053>054-230100-
WASHINGTON METRO

CITY           SKY/WX    TMP DP  RH WIND       PRES   REMARKS
WASHINGTON NAT CLOUDY    48  45  89 NE21      30.53F
DULLES         CLOUDY    45  44  97 N6        30.55R
ANDREWS AFB    CLOUDY    44  42  93 NE17      30.53R
FT BELVOIR     CLOUDY    46  45  93 E3        30.54R
QUANTICO       DRIZZLE   49  49 100 NE12      30.54R
COLLEGE PARK*  CLOUDY    44  41  89 NE9G16    30.55R
LEESBURG*      CLOUDY    41  41 100 NE7       30.57R
MANASSAS*      CLOUDY    45  44  97 N9        30.54R
GAITHERSBURG*  CLOUDY    42  41  96 VRB6      30.55R

$$

MDZ006>007-011-014-230100-
BALTIMORE METRO

CITY           SKY/WX    TMP DP  RH WIND       PRES   REMARKS
BWI AIRPORT    CLOUDY    43  42  97 NE14      30.55S
MD SCIENCE CTR   N/A     45  40  82 MISG      30.57R
MARTIN STATE   CLOUDY    45  43  93 NE8       30.59R
ANNAPOLIS      CLOUDY    45  42  89 NE10G21   30.57R
FORT MEADE*    CLOUDY    43  39  87 E7G20     30.59R

$$

MDZ012-015-019>023-230100-
MARYLAND EASTERN SHORE

CITY           SKY/WX    TMP DP  RH WIND       PRES   REMARKS
OCEAN CITY     LGT RAIN  42  42 100 NE18G33   30.54R FOG     WCI  34
SALISBURY      CLOUDY    45  43  93 NE18G28   30.53R
BAY BRIDGE AP* LGT RAIN  43  41  93 NE12      30.57R
CAMBRIDGE*       N/A     45  43  93 NE13G20   30.55R FOG
EASTON*        CLOUDY    45  41  87 E12G20    30.59R FOG

$$

MDZ017>025-230100-
SOUTHERN MARYLAND

CITY           SKY/WX    TMP DP  RH WIND       PRES   REMARKS
PATUXENT RIVER DRIZZLE   45  45 100 NE14      30.54R FOG
ST INIGOES     CLOUDY    46  44  93 NE14G20   30.52R FOG
LEONARDTOWN*   CLOUDY    45  43  93 NE8G16    30.55R

$$

MDZ003>005-230100-
NORTH CENTRAL MARYLAND

CITY           SKY/WX    TMP DP  RH WIND       PRES   REMARKS
FREDERICK*     CLOUDY    43  43 100 N8        30.59S
HAGERSTOWN APT CLOUDY    42  38  85 NE12      30.55R
WESTMINSTER*   CLOUDY    39  39 100 E9        30.53F WCI  33

$$

MDZ501>502-230100-
WESTERN MARYLAND

CITY           SKY/WX    TMP DP  RH WIND       PRES   REMARKS
OAKLAND*       CLOUDY    32  32 100 SE17G25   30.42S VSB 1/4 WCI  21
CUMBERLAND*    CLOUDY    41  39  93 CALM      30.58S

$$

VAZ025>031-230100-
SHENANDOAH VALLEY

CITY           SKY/WX    TMP DP  RH WIND       PRES   REMARKS
WINCHESTER*    CLOUDY    39  37  93 N3        30.56R
FRONT ROYAL*   CLOUDY    41  41 100 N6        30.54R
LURAY*         CLOUDY    43  41  93 N8        30.53R
NEW MARKET*    CLOUDY    42  40  93 NE8       30.52R
STAUNTON*      CLOUDY    46  41  83 NE6       30.52R
WAYNESBORO*    CLOUDY    46  43  92 N5        30.49R

$$

WVZ021-048>050-054>055-230100-
EASTERN WEST VIRGINIA PANHANDLE

CITY           SKY/WX    TMP DP  RH WIND       PRES   REMARKS
MARTINSBURG    CLOUDY    41  40  96 N7        30.54S
PETERSBURG*    CLOUDY    41  39  94 CALM      30.54R

$$

VAZ036>039-050-230100-
CENTRAL FOOTHILLS

CITY           SKY/WX    TMP DP  RH WIND       PRES   REMARKS
CHARLOTTESVILL CLOUDY    48  45  89 NE12      30.51R
CULPEPER*      CLOUDY    46  44  91 N6        30.55R
ORANGE*        RAIN      45  43  93 NE9       30.52R
GORDONSVILLE*  CLOUDY    46  46 100 NE7       30.51R
WARRENTON*     CLOUDY    46  42  86 N9        30.53R

$$

VAZ055>057-230100-
NORTH AND CENTRAL PIEDMONT

CITY           SKY/WX    TMP DP  RH WIND       PRES   REMARKS
FREDERICKSBRG* LGT RAIN  48  48 100 N8        30.52S
STAFFORD*      HVY RAIN  47  47 100 N5        30.57R

$$

NCZ024-NYZ072-PAZ021-071-VAZ022-071-230100-
OTHER REGIONAL OBSERVATIONS

CITY           SKY/WX    TMP DP  RH WIND       PRES   REMARKS
NEW YORK CITY  CLOUDY    38  35  89 NE10      30.66  WCI  31
PHILADELPHIA   CLOUDY    40  37  89 E13       30.60F WCI  32
PITTSBURGH     DRIZZLE   40  39  97 E6        30.46R
ROANOKE        MOCLDY    72  55  55 NE9       30.39R
RICHMOND       CLOUDY    52  49  89 NE18G26   30.49R
RALEIGH        FAIR      71  59  65 S7        30.39R

$$

ANZ530>537-230100-
MARINE OBSERVATIONS

STATION/POSITION TIME  TEMP    WIND        PRES
                       AIR SEA DIR/SP/G
                 (UTC) (F)     (DEG/KT/KT) (MB)
THOMAS PT LIGHT  0000   43 42   60/ 14/ 15   N/A
BALT KEY BRIDGE  2342   43      70/ 13/ 16 1035.3R
COVE POINT       2342   44      40/ 13/ 17 1034.9R
LEWISETTA        2342   47 51   40/  8/ 15 1033.6R
SOLOMONS ISLAND  2342   45 45   40/ 12/ 18 1033.8R
PINEY POINT      2342           70/ 11/ 14   N/A

$$





USA.gov is the U.S. government's official web portal to all federal, state and local government web resources and services.